Regional Weather Roundup
Issued by NWS

Home | Current Version | Previous Version | Graphics & Text | Print | Product List | Glossary Off
Versions: 1 2 3 4 5 6 7 8 9 10 11 12 13 14 15 16 17 18 19 20 21 22 23 24 25 26 27 28 29 30 31 32 33 34 35 36 37 38 39 40 41 42 43 44 45 46 47 48 49 50

748
ASUS43 KDTX 272310
RWRMI
MICHIGAN HOURLY REGIONAL WEATHER ROUNDUP
NATIONAL WEATHER SERVICE DETROIT/PONTIAC MI
700 PM EDT TUE JUN 27 2017

NOTE: "FAIR" INDICATES FEW OR NO CLOUDS BELOW 12,000 FEET WITH NO
SIGNIFICANT WEATHER AND/OR OBSTRUCTION TO VISIBILITY.

MIZ047>049-052>055-059>063-066>070-074>076-081>083-280000-
SOUTHEAST LOWER MICHIGAN

CITY           SKY/WX    TMP DP  RH WIND       PRES   REMARKS
ADRIAN         SUNNY     72  44  36 W10G18    30.04F
ALMA           MOSUNNY   70  47  44 W7G21     30.01F
ANN ARBOR      MOSUNNY   70  46  42 W9        30.02F
BAD AXE        MOSUNNY   68  49  50 SW8       30.00F
CARO           LGT RAIN  60  57  89 SE3       30.00F
DETROIT CITY   CLOUDY    71  45  39 W6        30.01F
DETROIT        PTSUNNY   72  46  39 W8        30.03S
FLINT          SUNNY     70  48  45 W8        30.01F
GROSSE ILE     CLOUDY    71  46  41 W7        30.01F
HILLSDALE      MOSUNNY   70  43  37 W10G17    30.05S
HOWELL         SUNNY     70  41  35 W12       30.02F

CITY           SKY/WX    TMP DP  RH WIND       PRES   REMARKS
JACKSON        SUNNY     71  44  37 W10       30.03F
LAMBERTVILLE   MOSUNNY   71  47  42 SW3       30.03S
LANSING        MOSUNNY   72  43  35 W12       30.03F
LAPEER         LGT RAIN  64  55  72 CALM      30.02S
MASON          SUNNY     71  45  39 W14G21    30.03F
MONROE         PTSUNNY   71  47  42 W3        30.02F
MT. CLEMENS    PTSUNNY   71  49  45 NW12      29.99F
PONTIAC        PTSUNNY   70  46  42 NW12      30.01F
PORT HOPE        N/A     68  50  52 VRB7      29.97F
PORT HURON     CLOUDY    68  48  49 CALM      30.02S
TRI CITIES     MOSUNNY   71  49  45 W7        30.00F
MIDLAND        FAIR      72  46  39 SW7       29.99S
TROY           MOSUNNY   73  40  30 W9        30.03S
SAGINAW HB     CLOUDY    64  52  63 E6        30.00F
$$
MIZ043>046-050>051-056>058-064>065-071>073-077>080-280000-
SOUTHWEST LOWER MICHIGAN

CITY           SKY/WX    TMP DP  RH WIND       PRES   REMARKS
BATTLE CREEK   MOSUNNY   71  44  37 NW13      30.06F
BENTON HARBOR  SUNNY     71  42  35 W6        30.06F
BIG RAPIDS     MOSUNNY   69  42  38 W13G20    30.01F
COLDWATER      MOSUNNY   71  40  32 W8        30.05F
FREMONT        FAIR      70  45  41 SW6       30.03S
HOLLAND        SUNNY     70  46  42 W10       30.06F
GRAND RAPIDS   MOSUNNY   70  46  42 W15       30.04F
IONIA          FAIR      70  44  39 W13G20    30.03S
KALAMAZOO      SUNNY     71  39  31 NW13      30.06F
LUDINGTON      CLOUDY    65  54  65 SW14      30.01F
MARSHALL       SUNNY     71  44  36 W8        30.04F
MOUNT PLEASANT MOSUNNY   70  44  40 W10G16    30.00F
MUSKEGON       MOSUNNY   68  49  50 SW13      30.04F
SOUTH HAVEN    SUNNY     70  46  41 W3        30.06F
$$
MIZ016>042-280000-
NORTHERN LOWER MICHIGAN

CITY           SKY/WX    TMP DP  RH WIND       PRES   REMARKS
ALPENA         SUNNY     70  46  42 NW8       29.97S
BEAVER ISLAND  MOSUNNY   64  50  59 SW12      29.98S
BELLAIRE       SUNNY     67  44  44 NW5       30.00S
CADILLAC       MOSUNNY   67  45  45 W8G16     30.01F
CHARLEVOIX     SUNNY     65  49  55 W9        30.02S
FRANKFORT      SUNNY     67  48  51 SW6       30.00S
GAYLORD        SUNNY     66  41  40 VRB7      30.00S
GRAYLING       SUNNY     68  45  43 W12       30.00F
HARBOR SPRINGS SUNNY     63  53  71 W5        29.99F
HOUGHTON LAKE  MOSUNNY   69  45  41 W9G20     30.00S
MANISTEE       SUNNY     70  51  51 SW6       29.99F
OSCODA         PTSUNNY   68  50  52 SW8G17    29.96F
PELLSTON       SUNNY     66  46  48 W9        29.98F
ROGERS CITY    SUNNY     66  47  49 N7        29.97F
TRAVERSE CITY  PTSUNNY   70  47  43 W8        29.97F
$$
MIZ007>008-015-280000-
EASTERN UPPER MICHIGAN

CITY           SKY/WX    TMP DP  RH WIND       PRES   REMARKS
KINROSS        CLOUDY    65  50  58 SW7       29.95F
MACKINAC ISLAN SUNNY     62  54  74 SW10      29.97S
NEWBERRY       MOSUNNY   66  52  59 S9G17     29.94S
S. S. MARIE    MOSUNNY   66  44  45 NW7       29.94S
MUNISING         N/A     69  53  56 VRB3      29.91F
$$
MIZ004>006-011>014-085-280000-
CENTRAL UPPER MICHIGAN

CITY           SKY/WX    TMP DP  RH WIND       PRES   REMARKS
MANISTIQUE     SUNNY     62  56  83 S9G17     29.95F
ESCANABA       SUNNY     68  56  65 S12       29.95F
MENOMINEE      SUNNY     74  52  46 SW7       29.94F
SAWYER-GWINN   MOSUNNY   72  46  40 SW15      29.93F
$$
MIZ001>003-009>011-084-280000-
WESTERN UPPER MICHIGAN

CITY           SKY/WX    TMP DP  RH WIND       PRES   REMARKS
IRON MOUNTAIN  MOSUNNY   75  44  33 SW6       29.92F
HOUGHTON       SUNNY     71  43  36 W10       29.88F
COPPER HARBOR    N/A     70  47  43 N10       29.87F
IRONWOOD       SUNNY     73  46  38 SW15      29.90F
$$

ABBREVIATIONS USED IN REMARKS
   TC - TEMPERATURE IN CELSIUS
  WCI - WIND CHILL INDEX
   HX - HEAT INDEX
  VSB - VISIBILITY





USA.gov is the U.S. government's official web portal to all federal, state and local government web resources and services.